Weather History for Olive Branch, MS

Change the Weather History Date:

Sunday, March 30, 2014

  Actual Average (KMEM) Record (KMEM)
Temperature  
Mean Temperature 48 °F 58 °F  
Max Temperature 62 °F 68 °F 85 °F (1986)
Min Temperature 33 °F 48 °F 23 °F (1964)
Degree Days  
Heating Degree Days 18 8  
Month to date heating degree days 351  
Since 1 July heating degree days 2801  
Cooling Degree Days 0 1  
Month to date cooling degree days 15  
Year to date cooling degree days 18  
Moisture  
Dew Point 36 °F    
Average Humidity 79    
Maximum Humidity 100    
Minimum Humidity 32    
Precipitation  
Precipitation 0.00 in 0.18 in 1.97 in (1962)
Month to date precipitation 4.97  
Year to date precipitation 13.34  
Snow  
Snow 0.00 in 0.00 in 0.40 in (1987)
Month to date snowfall 0.4  
Since 1 July snowfall 3.8  
Snow Depth -    
Sea Level Pressure  
Sea Level Pressure 30.23 in    
Wind  
Wind Speed 0 mph (NE)    
Max Wind Speed 6 mph    
Max Gust Speed -    
Visibility 7 miles    
Events      
T = Trace of Precipitation, MM = Missing Value Source: NWS Daily Summary

Daily Weather History Graph

Daily Weather History Graph

Search for Another Location

Airport:

Trip Planner

Search our weather history database for the weather conditions in past years. The results will help you decide how hot, cold, wet, or windy it might be!

Date:

Astronomy

Mar. 30, 2014 Rise Set
Actual Time 6:48 AM CDT 7:18 PM CDT
Civil Twilight 6:23 AM CDT 7:44 PM CDT
Nautical Twilight 5:53 AM CDT 8:14 PM CDT
Astronomical Twilight 5:23 AM CDT 8:44 PM CDT
Moon 6:34 AM CDT (3/30) 7:30 PM CDT (3/30)
Length of Visible Light 13h 20m
Length of Day
12h 30m
Waning Crescent, 0% of the Moon is Illuminated
Mar 30
Waning Crescent
Mar 30
New
Apr 7
First Quarter
Apr 15
Full
Apr 22
Last Quarter

Hourly Weather History & Observations

Time (CDT) Temp. Windchill Dew Point Humidity Pressure Visibility Wind Dir Wind Speed Gust Speed Precip Events Conditions
12:15 AM 37.4 °F - 37.4 °F 100% 30.25 in 6.0 mi Calm Calm - 0.00 in   Clear
12:35 AM 39.2 °F - 39.2 °F 100% 30.26 in 5.0 mi Calm Calm - 0.00 in   Clear
12:55 AM 39.2 °F - 39.2 °F 100% 30.26 in 6.0 mi Calm Calm - 0.00 in   Clear
1:15 AM 39.2 °F - 39.2 °F 100% 30.27 in 6.0 mi Calm Calm - 0.00 in   Clear
1:35 AM 37.4 °F - 37.4 °F 100% 30.27 in 5.0 mi Calm Calm - 0.00 in   Clear
1:55 AM 37.4 °F - 37.4 °F 100% 30.27 in 5.0 mi Calm Calm - 0.00 in   Clear
2:15 AM 35.6 °F - 35.6 °F 100% 30.28 in 5.0 mi Calm Calm - 0.00 in   Clear
2:35 AM 35.6 °F 31.7 °F 35.6 °F 100% 30.28 in 5.0 mi North 4.6 mph - 0.00 in   Clear
2:55 AM 35.6 °F - 35.6 °F 100% 30.28 in 4.0 mi Calm Calm - 0.00 in   Clear
3:15 AM 35.6 °F - 35.6 °F 100% 30.27 in 5.0 mi Calm Calm - 0.00 in   Clear
3:35 AM 35.6 °F - 35.6 °F 100% 30.26 in 4.0 mi Calm Calm - 0.00 in   Clear
3:55 AM 35.6 °F - 35.6 °F 100% 30.27 in 3.0 mi Calm Calm - 0.00 in   Clear
4:15 AM 33.8 °F - 33.8 °F 100% 30.27 in 4.0 mi Calm Calm - 0.00 in   Clear
4:35 AM 35.6 °F - 35.6 °F 100% 30.27 in 3.0 mi Calm Calm - 0.00 in   Clear
4:55 AM 33.8 °F - 33.8 °F 100% 30.27 in 3.0 mi Calm Calm - 0.00 in   Clear
5:15 AM 33.8 °F - 33.8 °F 100% 30.27 in 3.0 mi Calm Calm - 0.00 in   Clear
5:35 AM 33.8 °F - 33.8 °F 100% 30.27 in 4.0 mi Calm Calm - 0.00 in   Clear
5:55 AM 33.8 °F - 33.8 °F 100% 30.27 in 3.0 mi Calm Calm - 0.00 in   Clear
6:15 AM 35.6 °F - 35.6 °F 100% 30.28 in 3.0 mi Calm Calm - 0.00 in   Clear
6:35 AM 33.8 °F - 33.8 °F 100% 30.28 in 3.0 mi Calm Calm - 0.00 in   Clear
6:50 AM 33.8 °F 28.6 °F 33.8 °F 100% 30.28 in 3.0 mi NNE 5.8 mph - N/A   Clear
7:50 AM 35.6 °F - 35.6 °F 100% 30.28 in 5.0 mi Calm Calm - N/A   Clear
8:50 AM 39.2 °F - 37.4 °F 93% 30.30 in 7.0 mi Calm Calm - N/A   Clear
9:50 AM 42.8 °F 41.1 °F 39.2 °F 87% 30.31 in 7.0 mi NE 3.5 mph - N/A   Clear
10:50 AM 48.2 °F - 37.4 °F 66% 30.30 in 10.0 mi ENE 4.6 mph - N/A   Clear
11:50 AM 51.8 °F - 35.6 °F 54% 30.31 in 10.0 mi Calm Calm - N/A   Partly Cloudy
12:50 PM 55.4 °F - 37.4 °F 51% 30.28 in 10.0 mi Calm Calm - N/A   Partly Cloudy
1:50 PM 57.2 °F - 35.6 °F 44% 30.24 in 10.0 mi Calm Calm - N/A   Partly Cloudy
2:50 PM 60.8 °F - 35.6 °F 39% 30.22 in 10.0 mi Calm Calm - N/A   Partly Cloudy
3:50 PM 62.6 °F - 33.8 °F 34% 30.19 in 10.0 mi Calm Calm - N/A   Partly Cloudy
4:50 PM 62.6 °F - 32.0 °F 32% 30.16 in 10.0 mi Calm Calm - N/A   Partly Cloudy
5:50 PM 62.6 °F - 33.8 °F 34% 30.14 in 10.0 mi Calm Calm - N/A   Scattered Clouds
6:50 PM 57.2 °F - 35.6 °F 44% 30.14 in 10.0 mi South 5.8 mph - N/A   Scattered Clouds
7:50 PM 57.2 °F - 33.8 °F 41% 30.14 in 10.0 mi Calm Calm - N/A   Scattered Clouds
8:55 PM 53.6 °F - 37.4 °F 54% 30.15 in 9.0 mi Calm Calm - 0.00 in   Clear
9:15 PM 53.6 °F - 37.4 °F 54% 30.14 in 8.0 mi Calm Calm - 0.00 in   Clear
9:35 PM 51.8 °F - 35.6 °F 54% 30.14 in 9.0 mi Calm Calm - 0.00 in   Clear
9:55 PM 51.8 °F - 37.4 °F 58% 30.14 in 10.0 mi Calm Calm - 0.00 in   Clear
10:15 PM 46.4 °F - 39.2 °F 76% 30.13 in 10.0 mi Calm Calm - 0.00 in   Clear
10:35 PM 46.4 °F - 39.2 °F 76% 30.13 in 9.0 mi Calm Calm - 0.00 in   Clear
10:55 PM 48.2 °F - 39.2 °F 71% 30.13 in 9.0 mi Calm Calm - 0.00 in   Clear
11:15 PM 48.2 °F - 39.2 °F 71% 30.13 in 10.0 mi Calm Calm - 0.00 in   Clear
11:35 PM 46.4 °F - 39.2 °F 76% 30.14 in 10.0 mi Calm Calm - 0.00 in   Clear
11:55 PM 44.6 °F - 39.2 °F 81% 30.13 in 10.0 mi Calm Calm - 0.00 in   Clear